Regional Weather Roundup
Issued by NWS Raleigh/Durham, NC

Current Version | Previous Version | Text Only | Print | Product List | Glossary On
Versions: 1 2 3 4 5 6 7 8 9 10 11 12 13 14 15 16 17 18 19 20 21 22 23 24 25 26 27 28 29 30 31 32 33 34 35 36 37 38 39 40 41 42 43 44 45 46 47 48 49 50
000
ASUS42 KRAH 070710
RWRRAH
NORTH CAROLINA WEATHER ROUNDUP
NATIONAL WEATHER SERVICE RALEIGH NC
300 AM EDT TUE JUL 07 2015

NOTE: "FAIR" INDICATES FEW OR NO CLOUDS BELOW 12,000 FEET WITH NO
SIGNIFICANT WEATHER AND/OR OBSTRUCTIONS TO VISIBILITY.

NCZ001-053-055-056-065-067-070800-
WESTERN NORTH CAROLINA

CITY           SKY/WX    TMP DP  RH WIND       PRES   REMARKS
ASHEVILLE      CLEAR     65  61  87 NW3       30.18F
JEFFERSON      CLEAR     62  62 100 CALM      30.21F FOG
MORGANTON      CLEAR     68  67  99 NW3       30.17F FOG
HICKORY        CLEAR     69  67  93 NE3       30.12F FOG
RUTHERFORDTON  NOT AVBL
MOUNT AIRY     PTCLDY    67  65  91 CALM      30.14F
BOONE          CLEAR     58  58 100 CALM      30.23S FOG
$$

NCZ021-022-025-041-071-084-088-070800-
CENTRAL NORTH CAROLINA

CITY           SKY/WX    TMP DP  RH WIND       PRES   REMARKS
CHARLOTTE      MOCLDY    74  68  81 CALM      30.11S
GREENSBORO     PTCLDY    72  68  87 S3        30.10S
WINSTON-SALEM  CLEAR     69  66  90 CALM      30.11F
RALEIGH-DURHAM PTCLDY    72  66  81 CALM      30.09R
FORT BRAGG     CLEAR     75  70  85 SW5       30.08S
FAYETTEVILLE   CLEAR     73  71  93 SW7       30.08S
BURLINGTON     CLEAR     69  68  96 CALM      30.09S
LAURINBURG     CLEAR     72  69  90 SW6       30.10S FOG
$$

NCZ011-015-027-028-043-044-047-080-103-070800-
NORTHEASTERN NORTH CAROLINA

CITY           SKY/WX    TMP DP  RH WIND       PRES   REMARKS
ROCKY MT-WILSO CLEAR     73  70  90 CALM      30.09S
GREENVILLE     CLEAR     73  72  94 S6        30.11S
WASHINGTON     CLEAR     74  72  92 S3        30.10S
ELIZABETH CITY CLEAR     77  73  87 S9        30.09R
MANTEO         CLEAR     77  74  88 SW12      30.10S
CAPE HATTERAS  CLEAR     77  75  93 SW9       30.11R
$$

NCZ078-087-090-091-093-098-101-070800-
SOUTHEASTERN NORTH CAROLINA

CITY           SKY/WX    TMP DP  RH WIND       PRES   REMARKS
LUMBERTON      CLEAR     75  71  87 SW5       30.09S
GOLDSBORO      CLEAR     74  71  92 CALM      30.08R
KINSTON        CLEAR     73  70  93 S5        30.11R
KENANSVILLE    CLEAR     71  69  95 CALM      30.11S
NEW BERN       CLEAR     76  74  93 S5        30.11R
CHERRY POINT   CLEAR     76  72  87 CALM      30.12R
BEAUFORT       PTCLDY    79  76  90 SW13      30.11R
JACKSONVILLE   PTCLDY    75  73  93 S5        30.10R
WILMINGTON     CLEAR     76  72  87 SW3       30.10S
$$



USA.gov is the U.S. government's official web portal to all federal, state and local government web resources and services.